Weather in Astreyevo

Russia / Kaluga Oblast     55°00′43″N   36°11′25″E
temp.,
°C
wind,
m/s
gust,
m/s
humid.,
%
clouds,
%
prec.,
mm/h
press.,
hPa
HPBL,
m
22 january, sat
sat2200:00−7ese4996100 0.4 997299
03:00−5se3896100 1.1 997299
06:00−8sse239881 0.4 99946
09:00−10s249767 0.6 100256
12:00−7s359599 0.1 1005229
15:00−7s239668 0.1 100763
18:00−12sse1199100 0.1 101010
21:00−13e119996 0.1 101310
23 january, sun
sun2300:00−14e229981 0.1 101511
03:00−16ene2210099 0.1 101818
06:00−18ne22100100 0.0 102114
09:00−18e1110093 0.1 102410
12:00−11ne129675 0.0 102781
15:00−9nne239639 0.0 102977
18:00−15nne2210094 0.0 103218
21:00−19ne22100100 0.0 103512
24 january, mon
mon2400:00−20ne22100100 0.0 103620
03:00−22nne22100100 0.1 103717
06:00−19nne35100100 0.0 103860
09:00−22nne22100100 0.1 103930
12:00−13ne359787 0.0 1038126
15:00−10nne259645 0.0 1036149
18:00−15nne3510085 0.0 103653
21:00−16ne2410085 0.0 103560
25 january, tue
tue2500:00−19ne11100100 0.0 103410
03:00−20ne11100100 0.1 10329
06:00−22ne11100100 0.0 10309
09:00−23se11100100 0.1 10299
12:00−13sse129576 0.0 102696
15:00−10sse239410 0.0 1023126
18:00−18s2210085 0.0 10229
21:00−19s2210093 0.0 102120
26 january, wed
wed2600:00−15ssw2497100 0.0 101979
03:00−12s2396100 0.0 1018108
06:00−12se239690 0.4 101792
09:00−12se2296100 0.6 101776
12:00−9se129299 0.3 1016213
15:00−8se129290 0.5 1016260
18:00−12se119885 0.1 101610
21:00−14ssw119976 0.2 10169